Volver al catálogo

KUIPER-00626

ActivoComunicacionesLEO
NORAD 69781·PAYLOAD·🇺🇸 United States

Lanzado Jul 2, 2026 desde Cape Canaveral Space Force Station

Loading…

Próximos Pases (próximas 24 horas)

TLE

ActualizadoSource: CelesTrak SupGP

Época: Sep 14, 2026, 23:06 UTC

1 69781C 26151U   26257.96259259  .00001600  00000+0  20925-3 0  2579
2 69781  51.8968 251.1617 0001155 107.1466 104.7586 14.79958341    13

Sigue KUIPER-00626 en tiempo real con AllMySat

Download on the App Store